Frankfort, MI

4:01 PM EST on December 06, 2019 (GMT -0500)
Frankfort

Weather History for KFKS - October, 2019

Change the Weather History Date:

Sunday, October 13, 2019

  Actual Average (WUND) Record (WUND)
Temperature  
Mean Temperature 44 °F -  
Max Temperature 46 °F - - (-1)
Min Temperature 42 °F - - (-1)
Degree Days  
Heating Degree Days 21    
Moisture  
Dew Point 32 °F    
Average Humidity 61    
Maximum Humidity 73    
Minimum Humidity 51    
Precipitation  
Precipitation 0.00 in - - ()
Sea Level Pressure  
Sea Level Pressure 29.73 in    
Wind  
Wind Speed 14 mph (WSW)    
Max Wind Speed 25 mph    
Max Gust Speed 41 mph    
Visibility 10 miles    
Events Rain    
Averages and records for this station are not official NWS values.
T = Trace of Precipitation, MM = Missing Value Source: NWS Daily Summary

Daily Weather History Graph

Daily Weather History Graph

Search for Another Location

Airport or City:

Astronomy

Oct. 13, 2019 Rise Set
Actual Time 7:57 AM EDT 7:04 PM EDT
Civil Twilight 7:27 AM EDT 7:33 PM EDT
Nautical Twilight 6:54 AM EDT 8:07 PM EDT
Astronomical Twilight 6:20 AM EDT 8:40 PM EDT
Moon 7:28 PM EDT (10/13) 7:27 AM EDT (10/13)
Length of Visible Light 12h 05m
Length of Day
11h 06m
Full, 100% of the Moon is Illuminated
Oct 13
Full
Oct 13
Full
Oct 21
Last Quarter
Oct 27
New
Nov 4
First Quarter

Hourly Weather History & Observations

Time (EDT) Temp. Windchill Dew Point Humidity Pressure Visibility Wind Dir Wind Speed Gust Speed Precip Events Conditions
12:17 AM 44.6 °F 38.8 °F 36.0 °F 72% 29.74 in 10.0 mi SW 11.5 mph 27.6 mph N/A   Light Drizzle
12:35 AM 45.3 °F 38.7 °F 36.5 °F 71% 29.73 in 10.0 mi SW 15.0 mph 29.9 mph N/A   Light Drizzle
12:55 AM 45.5 °F 38.6 °F 36.9 °F 72% 29.72 in 10.0 mi WSW 16.1 mph 25.3 mph N/A Rain Rain
1:15 AM 45.5 °F 37.8 °F 36.5 °F 71% 29.71 in 10.0 mi SW 19.6 mph 34.5 mph N/A   Light Drizzle
1:38 AM 45.7 °F 38.8 °F 37.0 °F 72% 29.71 in 10.0 mi SSW 16.1 mph 33.4 mph N/A Rain Rain
1:56 AM 45.7 °F 37.6 °F 37.6 °F 73% 29.70 in 7.0 mi SW 21.9 mph 32.2 mph N/A Rain Light Rain
2:15 AM 46.2 °F 37.7 °F 37.8 °F 72% 29.69 in 10.0 mi SSW 25.3 mph 41.4 mph N/A Rain Light Rain
2:35 AM 46.4 °F 40.4 °F 36.1 °F 67% 29.69 in 10.0 mi SW 13.8 mph 33.4 mph N/A Rain Rain
3:16 AM 44.8 °F 38.3 °F 35.2 °F 69% 29.69 in 10.0 mi WSW 13.8 mph 25.3 mph N/A Rain Light Rain
3:35 AM 45.5 °F 38.9 °F 34.3 °F 65% 29.68 in 10.0 mi WSW 15.0 mph 24.2 mph N/A   Light Drizzle
3:55 AM 45.5 °F 38.9 °F 33.1 °F 62% 29.69 in 10.0 mi SW 15.0 mph 26.5 mph N/A   Light Drizzle
4:19 AM 45.5 °F 38.3 °F 32.2 °F 60% 29.69 in 10.0 mi WSW 17.3 mph 25.3 mph N/A   Light Drizzle
4:37 AM 44.8 °F 38.7 °F 32.0 °F 61% 29.69 in 10.0 mi WSW 12.7 mph 21.9 mph N/A Rain Light Rain
4:55 AM 45.0 °F 38.9 °F 31.8 °F 60% 29.69 in 10.0 mi WSW 12.7 mph 24.2 mph N/A   Light Drizzle
5:15 AM 45.0 °F 40.6 °F 32.0 °F 60% 29.69 in 10.0 mi SW 8.1 mph 24.2 mph N/A   Light Drizzle
5:35 AM 45.3 °F 38.7 °F 30.2 °F 56% 29.69 in 10.0 mi WSW 15.0 mph 24.2 mph N/A   Overcast
5:40 AM 45.5 °F 38.9 °F 29.8 °F 54% 29.69 in 10.0 mi WSW 15.0 mph 20.7 mph N/A   Overcast
5:58 AM 45.5 °F 39.2 °F 30.6 °F 56% 29.69 in 10.0 mi WSW 13.8 mph 24.2 mph N/A   Overcast
6:35 AM 45.3 °F 38.7 °F 31.6 °F 59% 29.70 in 10.0 mi WSW 15.0 mph 21.9 mph N/A   Mostly Cloudy
6:55 AM 45.5 °F 40.3 °F 31.6 °F 58% 29.70 in 10.0 mi WSW 10.4 mph 18.4 mph N/A   Overcast
7:19 AM 45.1 °F 40.3 °F 31.1 °F 58% 29.70 in 10.0 mi WSW 9.2 mph 18.4 mph N/A   Overcast
7:37 AM 45.1 °F 40.3 °F 30.9 °F 58% 29.70 in 10.0 mi WSW 9.2 mph 18.4 mph N/A   Overcast
7:55 AM 45.1 °F 38.8 °F 29.3 °F 54% 29.70 in 10.0 mi West 13.8 mph 20.7 mph N/A   Overcast
8:15 AM 45.0 °F 40.1 °F 29.3 °F 54% 29.71 in 10.0 mi WSW 9.2 mph 21.9 mph N/A   Overcast
8:35 AM 44.8 °F 39.4 °F 29.7 °F 55% 29.71 in 10.0 mi SW 10.4 mph 17.3 mph N/A   Overcast
8:40 AM 45.0 °F 40.1 °F 29.7 °F 55% 29.71 in 10.0 mi WSW 9.2 mph 16.1 mph N/A   Overcast
8:58 AM 44.8 °F 38.3 °F 31.6 °F 60% 29.71 in 10.0 mi WSW 13.8 mph 18.4 mph N/A   Overcast
9:35 AM 45.1 °F 40.3 °F 30.7 °F 57% 29.71 in 10.0 mi SW 9.2 mph - N/A   Overcast
9:55 AM 45.1 °F 39.9 °F 30.0 °F 55% 29.71 in 10.0 mi WSW 10.4 mph - N/A   Overcast
10:19 AM 45.1 °F 40.3 °F 28.6 °F 52% 29.71 in 10.0 mi WSW 9.2 mph 19.6 mph N/A   Overcast
10:37 AM 45.3 °F 39.7 °F 28.0 °F 51% 29.71 in 10.0 mi WSW 11.5 mph 17.3 mph N/A   Overcast
10:55 AM 45.1 °F 41.4 °F 29.3 °F 54% 29.71 in 10.0 mi WSW 6.9 mph 17.3 mph N/A   Overcast
11:15 AM 45.0 °F 38.5 °F 30.7 °F 57% 29.71 in 10.0 mi WSW 13.8 mph 18.4 mph N/A   Overcast
11:35 AM 45.1 °F 38.8 °F 30.2 °F 56% 29.71 in 10.0 mi WSW 13.8 mph 19.6 mph N/A   Overcast
11:39 AM 45.0 °F 39.3 °F 30.2 °F 56% 29.71 in 10.0 mi West 11.5 mph 18.4 mph N/A   Overcast
11:58 AM 44.8 °F 39.0 °F 30.6 °F 57% 29.71 in 10.0 mi WSW 11.5 mph 20.7 mph N/A   Overcast
12:16 PM 44.6 °F 38.4 °F 30.9 °F 59% 29.71 in 10.0 mi West 12.7 mph 19.6 mph N/A   Overcast
12:35 PM 44.2 °F 38.0 °F 32.5 °F 63% 29.71 in 10.0 mi WSW 12.7 mph 18.4 mph N/A   Overcast
12:55 PM 44.8 °F 38.3 °F 32.4 °F 62% 29.71 in 10.0 mi SW 13.8 mph 21.9 mph N/A   Overcast
1:19 PM 44.8 °F 38.7 °F 30.7 °F 58% 29.70 in 10.0 mi SW 12.7 mph 21.9 mph N/A   Light Drizzle
1:37 PM 44.8 °F 39.4 °F 32.2 °F 61% 29.71 in 10.0 mi West 10.4 mph 18.4 mph N/A Rain Light Rain
1:55 PM 44.4 °F 37.5 °F 32.0 °F 62% 29.70 in 10.0 mi WSW 15.0 mph 21.9 mph N/A Rain Light Rain
2:15 PM 43.9 °F 36.8 °F 32.4 °F 64% 29.70 in 10.0 mi WSW 15.0 mph 25.3 mph N/A Rain Light Rain
2:35 PM 43.2 °F 35.6 °F 32.9 °F 67% 29.71 in 5.0 mi West 16.1 mph 27.6 mph N/A Rain Light Rain
2:58 PM 43.7 °F 37.3 °F 33.3 °F 67% 29.70 in 10.0 mi West 12.7 mph 26.5 mph N/A Rain Light Rain
3:15 PM 44.6 °F 37.4 °F 31.8 °F 61% 29.70 in 10.0 mi WSW 16.1 mph 23.0 mph N/A Rain Light Rain
3:35 PM 44.1 °F 36.2 °F 33.6 °F 67% 29.71 in 10.0 mi WSW 18.4 mph 27.6 mph N/A Rain Light Rain
3:36 PM 44.1 °F 36.8 °F 33.8 °F 67% 29.71 in 10.0 mi WSW 16.1 mph 27.6 mph N/A Rain Light Rain
3:55 PM 45.1 °F 41.4 °F 34.0 °F 65% 29.71 in 10.0 mi WSW 6.9 mph 18.4 mph N/A   Overcast
3:56 PM 45.3 °F 39.7 °F 34.0 °F 65% 29.71 in 10.0 mi WSW 11.5 mph 19.6 mph N/A   Overcast
4:19 PM 44.6 °F 39.2 °F 32.7 °F 63% 29.71 in 10.0 mi WSW 10.4 mph 24.2 mph N/A Rain Light Rain
4:37 PM 46.0 °F 39.0 °F 32.0 °F 58% 29.72 in 10.0 mi WSW 17.3 mph 29.9 mph N/A   Mostly Cloudy
4:55 PM 46.0 °F 39.6 °F 32.5 °F 59% 29.73 in 10.0 mi WSW 15.0 mph 24.2 mph N/A Rain Light Rain
5:15 PM 46.4 °F 39.8 °F 31.5 °F 56% 29.73 in 10.0 mi WSW 16.1 mph 23.0 mph N/A   Overcast
5:35 PM 45.9 °F 39.4 °F 31.8 °F 58% 29.73 in 10.0 mi West 15.0 mph 24.2 mph N/A   Overcast
5:58 PM 46.8 °F - 31.5 °F 55% 29.74 in 10.0 mi West 15.0 mph 26.5 mph N/A   Overcast
6:16 PM 46.4 °F 40.4 °F 32.0 °F 57% 29.74 in 10.0 mi West 13.8 mph 24.2 mph N/A Rain Light Rain
6:35 PM 45.9 °F 38.0 °F 33.1 °F 61% 29.76 in 10.0 mi West 20.7 mph 36.8 mph N/A Rain Light Rain
6:36 PM 45.1 °F 37.3 °F 33.4 °F 64% 29.77 in 10.0 mi West 19.6 mph 36.8 mph N/A Rain Rain
6:55 PM 42.3 °F 36.3 °F 33.8 °F 72% 29.77 in 4.0 mi WSW 10.4 mph 26.5 mph N/A Rain Light Rain
7:19 PM 45.1 °F 39.1 °F 32.0 °F 60% 29.76 in 10.0 mi WSW 12.7 mph 24.2 mph N/A   Overcast
7:37 PM 45.5 °F 39.2 °F 34.7 °F 66% 29.77 in 10.0 mi WSW 13.8 mph 23.0 mph N/A   Overcast
7:55 PM 46.0 °F 40.6 °F 33.3 °F 61% 29.77 in 10.0 mi West 11.5 mph 31.1 mph N/A   Overcast
7:56 PM 46.0 °F 40.2 °F 33.1 °F 61% 29.77 in 10.0 mi West 12.7 mph 31.1 mph N/A   Overcast
8:15 PM 46.4 °F 41.1 °F 34.0 °F 62% 29.78 in 10.0 mi West 11.5 mph 21.9 mph N/A   Overcast
8:16 PM 46.4 °F 41.5 °F 34.0 °F 62% 29.78 in 10.0 mi West 10.4 mph 21.9 mph N/A   Overcast
8:35 PM 46.4 °F 41.9 °F 33.1 °F 60% 29.78 in 10.0 mi WSW 9.2 mph 24.2 mph N/A   Overcast
8:58 PM 46.6 °F - 32.0 °F 57% 29.79 in 10.0 mi West 17.3 mph 23.0 mph N/A   Overcast
9:16 PM 46.8 °F - 31.8 °F 56% 29.80 in 10.0 mi West 10.4 mph 21.9 mph N/A   Overcast
9:35 PM 46.6 °F - 31.6 °F 56% 29.80 in 10.0 mi West 11.5 mph 20.7 mph N/A   Overcast
9:36 PM 46.6 °F - 31.8 °F 56% 29.80 in 10.0 mi West 13.8 mph 20.7 mph N/A   Overcast
9:55 PM 46.4 °F 41.1 °F 32.0 °F 57% 29.81 in 10.0 mi West 11.5 mph 21.9 mph N/A   Overcast
10:19 PM 46.4 °F 40.7 °F 32.2 °F 58% 29.81 in 10.0 mi West 12.7 mph 23.0 mph N/A   Mostly Cloudy
10:37 PM 46.4 °F 40.1 °F 32.7 °F 59% 29.81 in 10.0 mi WNW 15.0 mph 21.9 mph N/A   Mostly Cloudy
10:55 PM 46.6 °F - 32.4 °F 58% 29.82 in 10.0 mi West 12.7 mph 25.3 mph N/A   Mostly Cloudy
10:56 PM 46.6 °F - 32.2 °F 57% 29.82 in 10.0 mi West 15.0 mph 25.3 mph N/A   Mostly Cloudy
11:15 PM 46.6 °F - 32.2 °F 57% 29.82 in 10.0 mi West 13.8 mph 21.9 mph N/A   Mostly Cloudy
11:16 PM 46.6 °F - 32.2 °F 57% 29.82 in 10.0 mi West 12.7 mph 21.9 mph N/A   Mostly Cloudy
11:35 PM 46.4 °F 40.7 °F 32.9 °F 59% 29.82 in 10.0 mi West 12.7 mph 20.7 mph N/A   Scattered Clouds
11:58 PM 46.4 °F 41.1 °F 33.1 °F 60% 29.82 in 10.0 mi West 11.5 mph 20.7 mph N/A   Mostly Cloudy